Wind_Speed
16 15 16 15 14 15 16 17 18 21 24 26 25 24 25 25 25 25 26 26 26 26 26 26 26 26 26 26 26 26 26 25 25 24 24 24 24 23 23 23 24 24 23 23
15 14 15 15 16 17 18 18 21 23 24 26 27 27 27 28 28 26 27 27 27 26 27 27 27 26 26 26 26 26 26 25 25 24 24 24 24 24 23 23 23 23 23 22
13 14 15 16 16 18 19 20 22 22 24 27 28 28 28 28 27 26 27 26 26 26 26 27 26 27 27 27 26 26 25 24 24 23 23 23 23 23 23 23 23 22 22 21
13 14 16 15 16 18 19 21 22 21 23 24 26 26 26 26 25 26 26 26 26 26 26 26 26 26 26 26 25 24 23 22 21 21 21 21 21 21 21 22 21 20 20 18
12 13 15 15 18 18 19 20 20 22 23 23 24 25 25 25 26 27 27 26 26 26 26 26 25 25 24 24 23 22 21 20 20 19 19 19 18 18 18 17 17 17 17 16
11 13 15 16 17 16 18 21 21 22 23 23 23 24 24 25 26 25 25 24 24 24 24 24 24 23 23 22 20 20 19 18 18 17 17 16 16 15 15 14 14 14 13 13
11 13 15 16 16 16 17 19 20 21 21 22 23 23 24 24 24 24 23 23 22 22 22 22 21 21 20 19 18 17 16 16 15 14 13 13 12 12 11 11 10 10 9 9
12 13 15 15 15 16 17 18 19 20 20 20 21 22 22 22 23 23 23 21 20 20 20 19 19 18 17 16 15 14 13 12 12 11 10 10 9 8 7 8 9 9 8 8
11 12 13 14 14 14 15 16 17 18 18 19 20 21 21 22 22 22 21 19 19 19 18 17 16 15 14 13 12 11 10 10 9 9 8 8 7 6 6 7 7 7 7 6
10 10 11 11 12 13 13 14 14 15 17 18 19 20 21 20 20 19 18 17 16 16 15 14 13 12 11 11 9 8 7 7 6 5 5 5 5 5 5 5 5 5 5 5
9 9 9 9 10 11 12 13 13 14 16 17 18 19 19 18 18 17 16 14 14 13 12 11 10 9 8 7 6 5 4 3 3 3 3 3 3 3 3 3 3 3 3 4
7 7 7 8 9 10 11 11 12 14 15 16 18 18 17 16 15 14 14 13 12 11 10 8 7 7 6 5 3 2 1 1 1 2 2 2 2 2 2 3 2 2 3 3
6 6 7 8 8 9 10 11 12 13 15 16 17 17 16 15 14 13 12 11 10 9 8 7 6 5 4 3 2 1 1 1 2 2 3 2 3 3 4 4 4 4 4 5
5 5 6 6 7 8 9 11 12 13 15 15 16 16 15 14 12 11 11 10 9 8 7 6 5 4 4 4 3 3 2 3 3 3 4 4 4 5 5 4 5 5 5 6
5 5 5 6 7 8 9 10 11 13 14 15 15 15 14 13 12 11 10 10 9 8 7 6 5 5 5 5 5 4 4 4 5 5 6 6 6 6 7 7 7 7 8 8
5 5 5 6 7 8 9 10 11 12 14 15 15 14 13 12 12 11 10 9 9 8 7 7 6 6 6 6 6 6 6 6 6 7 7 7 8 8 8 9 9 9 9 9
5 5 5 6 7 8 9 10 11 13 13 14 14 14 13 12 12 11 10 10 9 8 8 8 8 7 7 7 8 8 8 9 9 9 9 9 10 10 10 10 11 11 11 11
5 5 5 6 7 8 9 10 11 12 13 13 14 13 13 12 12 12 11 11 10 10 10 10 9 9 9 9 10 10 11 11 11 11 11 11 12 12 12 12 13 13 13 13
5 5 5 6 7 8 9 10 10 11 11 13 13 13 12 12 12 12 12 11 11 11 11 11 10 10 10 11 11 11 11 12 12 12 13 13 14 14 14 14 15 15 15 15
4 5 5 5 6 7 9 9 10 10 11 11 12 12 12 12 12 11 11 11 11 11 11 11 11 11 10 10 11 12 12 12 13 14 14 14 14 15 15 16 16 17 16 16
4 4 4 5 5 6 7 8 9 9 10 10 11 12 12 12 11 11 11 11 11 11 11 11 11 12 12 12 12 13 13 13 14 14 15 15 15 15 15 16 16 16 16 15
5 4 4 4 4 5 6 7 8 8 9 10 10 11 11 11 11 11 11 11 11 11 11 11 12 12 12 13 13 13 14 14 14 14 14 14 14 14 15 15 15 15 15 15
5 5 4 4 4 3 4 5 6 7 7 8 9 10 10 11 11 11 11 11 11 11 11 11 11 12 12 12 12 13 14 14 14 14 14 14 14 14 14 14 14 13 14 14
6 5 5 4 4 3 3 3 3 4 5 6 7 8 9 10 10 10 10 10 10 10 10 10 10 11 11 12 12 13 13 13 14 13 13 14 13 13 13 13 13 13 13 13
7 7 6 6 5 4 4 3 2 2 3 4 5 6 7 7 8 8 9 8 8 8 9 9 9 10 10 10 11 11 12 12 12 12 12 12 12 12 12 12 11 11 11 11
9 9 8 7 7 7 6 5 4 3 2 2 3 3 4 5 5 6 6 6 6 6 7 7 8 8 9 9 9 9 9 10 10 10 10 10 10 10 10 9 9 9 9 9
12 11 11 10 9 9 8 7 7 6 5 4 3 2 2 2 2 3 3 3 4 4 5 5 5 6 6 6 7 7 7 7 7 8 8 8 8 8 8 7 7 7 7 6
Wind_Direction
243 241 248 259 254 251 254 259 265 267 274 280 287 291 293 296 298 296 297 298 298 297 296 295 295 295 294 293 291 290 289 288 286 285 283 282 280 280 279 278 276 275 276 275
246 248 249 250 252 252 254 260 264 269 274 279 287 291 294 295 298 298 298 298 298 296 295 295 294 294 294 294 293 291 289 287 286 285 283 282 280 277 276 274 274 273 273 273
245 249 251 251 255 253 258 260 263 269 275 280 284 286 290 294 295 299 300 299 298 297 295 295 294 294 295 294 294 291 289 287 286 283 282 281 279 277 275 274 274 273 271 269
247 249 252 250 253 255 257 263 271 273 278 282 286 289 292 296 298 300 300 299 298 298 297 297 296 296 295 295 293 291 288 287 285 283 282 281 279 278 276 275 273 271 270 268
251 251 256 252 255 259 263 270 275 279 281 286 288 291 293 297 299 300 299 299 299 298 298 297 297 297 296 296 293 291 288 286 284 283 282 282 280 278 277 275 271 271 268 266
257 256 260 264 268 271 276 279 283 287 289 292 294 296 298 302 303 302 303 302 300 300 299 298 298 297 296 295 292 291 288 284 284 282 280 279 278 275 273 270 268 268 264 262
261 260 263 270 277 281 281 285 289 292 293 296 299 301 303 305 306 307 307 306 303 302 302 302 300 298 296 295 292 290 286 282 282 278 275 274 273 270 266 263 262 262 258 253
259 263 267 275 280 282 285 288 291 296 299 303 305 306 307 308 309 310 310 309 309 308 307 305 302 299 297 296 295 290 286 283 279 274 269 267 265 263 257 256 256 252 250 243
265 269 273 280 282 288 291 293 297 302 306 309 310 310 309 310 311 312 314 314 313 312 311 308 304 301 299 299 298 292 287 283 277 269 262 259 257 260 259 257 253 245 235 223
267 273 280 285 291 296 299 301 305 309 311 314 315 315 314 316 317 318 321 320 320 319 317 314 312 308 305 304 303 296 284 278 275 260 246 248 249 257 257 252 244 234 222 217
275 281 287 300 305 309 310 312 315 315 319 321 321 321 323 324 324 325 326 326 326 327 325 322 319 314 310 309 305 296 280 268 257 239 231 231 227 230 229 215 201 194 195 197
292 294 298 309 316 320 320 319 321 324 325 327 329 330 330 331 332 332 334 336 338 339 338 337 334 330 327 322 314 302 267 243 226 214 197 176 179 178 165 157 164 167 172 172
304 303 310 323 331 332 331 333 333 334 335 336 339 341 342 342 341 342 342 345 349 351 352 352 353 352 353 354 11 89 122 119 140 149 152 143 143 142 140 136 135 139 138 135
328 324 326 339 342 339 339 342 344 343 344 345 347 348 349 349 351 354 358 1 3 5 10 16 20 24 33 50 73 91 106 115 112 115 126 133 128 121 118 121 125 123 124 123
348 345 348 350 351 350 351 352 352 352 353 353 354 357 358 359 1 5 8 11 16 19 26 32 36 44 55 70 79 87 97 105 108 106 110 119 121 115 110 112 113 108 107 108
359 355 354 356 356 358 360 1 1 0 359 360 1 3 6 9 12 16 20 23 27 30 37 42 49 58 69 80 81 86 92 98 110 111 110 112 113 111 109 108 106 106 104 102
4 359 359 1 2 3 4 7 5 4 5 9 11 12 16 20 24 28 32 35 40 46 50 54 60 65 74 82 86 89 93 98 102 103 106 110 109 107 106 104 105 105 104 103
360 356 356 359 6 7 7 6 7 9 13 16 17 19 23 28 32 38 42 47 52 56 58 62 65 66 75 86 90 91 93 93 95 96 100 104 105 105 103 102 103 103 102 102
352 350 351 358 4 7 6 7 9 12 16 18 20 24 29 33 37 43 50 55 57 59 61 64 67 71 81 88 90 92 96 96 96 98 99 101 103 104 103 102 102 101 101 100
341 344 350 356 3 8 8 10 14 16 18 20 24 29 34 38 42 47 53 57 58 59 63 67 69 73 81 86 92 94 96 98 98 99 99 99 100 101 101 101 100 100 98 96
328 332 341 352 0 5 9 17 23 24 26 26 30 34 38 43 47 52 56 58 59 62 66 70 73 76 81 87 93 96 97 99 100 100 100 100 100 100 100 100 100 98 96 95
309 314 321 332 348 0 9 19 26 29 31 34 36 37 41 46 50 54 58 59 60 61 67 72 76 80 84 88 93 97 99 102 102 102 102 102 102 102 102 100 99 97 96 96
291 298 302 308 320 340 1 16 27 32 36 40 41 42 44 47 50 53 58 61 62 65 69 72 78 83 87 91 94 97 100 102 103 104 104 104 104 103 102 101 99 98 97 96
280 281 285 289 298 312 331 356 20 30 34 37 38 41 45 49 51 54 58 62 65 68 72 77 83 87 91 94 97 98 100 102 104 106 106 106 105 104 103 102 101 99 96 94
269 271 273 274 274 284 293 294 311 357 16 21 26 32 40 47 50 53 57 62 68 73 76 79 85 92 94 97 100 101 102 104 105 106 107 107 106 106 105 103 102 99 96 93
260 262 264 266 265 266 270 269 267 277 306 337 356 12 29 40 45 50 55 62 69 77 83 86 89 95 99 102 105 107 108 109 109 109 109 109 108 108 107 106 103 100 96 93
256 256 257 260 261 261 262 259 256 258 264 273 284 299 329 12 35 44 53 63 74 83 92 98 101 104 107 108 110 113 115 116 114 113 113 112 112 112 112 111 108 104 98 92
Height
5785 5785 5786 5788 5789 5790 5790 5790 5790 5788 5785 5782 5781 5779 5777 5775 5773 5771 5769 5767 5765 5762 5759 5757 5755 5753 5750 5748 5747 5745 5744 5742 5741 5740 5740 5739 5739 5739 5738 5738 5738 5738 5738 5738
5782 5783 5784 5785 5786 5786 5786 5786 5785 5783 5781 5779 5777 5775 5773 5771 5768 5766 5763 5761 5758 5756 5753 5750 5748 5746 5744 5742 5740 5738 5737 5735 5734 5733 5733 5732 5732 5732 5732 5731 5731 5731 5732 5732
5778 5779 5780 5781 5781 5781 5780 5779 5779 5778 5778 5775 5772 5770 5768 5766 5763 5759 5757 5754 5752 5749 5746 5743 5741 5739 5737 5735 5733 5731 5730 5728 5727 5726 5726 5725 5725 5725 5725 5725 5725 5725 5725 5726
5775 5776 5777 5779 5777 5777 5776 5774 5774 5772 5771 5769 5767 5765 5763 5760 5757 5754 5751 5748 5745 5742 5739 5737 5734 5732 5730 5728 5726 5724 5723 5722 5721 5720 5720 5719 5719 5719 5719 5718 5719 5719 5720 5720
5772 5772 5772 5772 5771 5771 5770 5769 5769 5768 5766 5763 5761 5759 5756 5754 5750 5747 5744 5741 5738 5735 5733 5730 5728 5725 5723 5721 5719 5718 5717 5715 5715 5714 5714 5713 5713 5713 5713 5713 5714 5714 5715 5716
5768 5768 5768 5768 5768 5767 5768 5765 5764 5763 5761 5758 5756 5754 5751 5748 5744 5741 5737 5734 5732 5729 5726 5724 5721 5719 5717 5715 5713 5712 5711 5710 5709 5709 5709 5709 5709 5709 5709 5709 5710 5710 5711 5712
5765 5765 5765 5765 5765 5765 5765 5763 5760 5758 5756 5753 5751 5748 5745 5742 5738 5735 5732 5728 5726 5723 5720 5718 5715 5713 5711 5709 5708 5707 5706 5705 5705 5704 5704 5704 5704 5705 5705 5706 5707 5707 5708 5709
5762 5762 5764 5761 5761 5762 5760 5758 5756 5754 5751 5749 5746 5743 5740 5736 5733 5729 5726 5723 5720 5718 5715 5712 5710 5708 5706 5704 5703 5702 5702 5701 5701 5701 5701 5701 5702 5702 5703 5704 5704 5705 5706 5707
5759 5761 5759 5758 5758 5757 5756 5754 5752 5750 5747 5744 5741 5738 5735 5732 5728 5725 5721 5718 5716 5713 5710 5708 5705 5704 5702 5701 5699 5699 5698 5698 5698 5698 5699 5700 5700 5701 5701 5702 5703 5704 5705 5706
5756 5755 5756 5755 5755 5754 5752 5751 5749 5746 5744 5741 5738 5734 5731 5727 5724 5720 5717 5715 5712 5709 5707 5704 5702 5700 5699 5698 5697 5696 5696 5696 5696 5697 5697 5698 5699 5700 5700 5701 5701 5703 5704 5705
5754 5753 5754 5753 5752 5751 5749 5748 5746 5743 5741 5738 5735 5731 5727 5724 5720 5717 5714 5711 5709 5706 5704 5702 5700 5699 5698 5697 5696 5695 5695 5695 5696 5696 5697 5698 5698 5699 5700 5701 5701 5703 5704 5705
5753 5752 5752 5751 5750 5748 5747 5745 5743 5741 5739 5735 5732 5728 5725 5721 5718 5715 5712 5710 5707 5705 5703 5701 5699 5698 5697 5696 5696 5695 5695 5695 5696 5696 5697 5698 5699 5699 5700 5701 5702 5703 5704 5705
5752 5751 5751 5749 5748 5747 5745 5744 5742 5739 5737 5734 5730 5726 5723 5719 5716 5714 5711 5709 5707 5704 5703 5701 5700 5698 5698 5697 5696 5696 5696 5696 5696 5697 5698 5699 5700 5700 5701 5702 5703 5704 5705 5706
5751 5751 5750 5749 5747 5746 5744 5743 5741 5738 5735 5732 5729 5725 5722 5719 5716 5714 5711 5709 5707 5705 5703 5702 5700 5699 5698 5698 5697 5697 5697 5698 5698 5698 5699 5700 5701 5702 5703 5703 5704 5705 5706 5707
5752 5751 5750 5749 5747 5746 5744 5742 5740 5738 5735 5732 5729 5725 5722 5719 5716 5714 5712 5710 5708 5706 5704 5703 5702 5701 5700 5700 5699 5699 5699 5699 5700 5700 5701 5702 5703 5704 5704 5705 5706 5707 5708 5709
5752 5752 5751 5749 5748 5746 5745 5743 5741 5738 5735 5732 5729 5726 5723 5720 5717 5715 5713 5711 5709 5707 5706 5705 5704 5703 5702 5702 5702 5702 5702 5702 5702 5703 5704 5704 5705 5706 5707 5708 5709 5710 5711 5712
5753 5752 5751 5750 5749 5747 5745 5743 5741 5739 5736 5733 5730 5727 5724 5722 5719 5717 5715 5713 5711 5710 5708 5707 5707 5706 5705 5705 5705 5705 5705 5705 5705 5706 5707 5708 5708 5709 5710 5711 5712 5713 5714 5715
5754 5753 5752 5751 5749 5748 5746 5744 5742 5740 5737 5735 5732 5729 5726 5724 5722 5720 5718 5716 5714 5713 5712 5711 5710 5709 5708 5708 5708 5708 5709 5709 5709 5710 5711 5711 5712 5713 5714 5715 5715 5716 5717 5718
5754 5753 5752 5751 5750 5748 5747 5745 5743 5741 5739 5736 5734 5731 5729 5727 5725 5723 5721 5719 5718 5717 5716 5715 5714 5713 5713 5712 5712 5713 5713 5713 5714 5714 5715 5716 5716 5717 5718 5719 5720 5721 5721 5722
5754 5753 5753 5752 5751 5749 5747 5746 5744 5742 5740 5738 5736 5734 5732 5730 5728 5726 5725 5723 5722 5721 5720 5719 5718 5717 5717 5717 5717 5717 5717 5718 5718 5719 5720 5721 5721 5722 5723 5723 5724 5725 5726 5727
5754 5754 5753 5752 5751 5750 5749 5747 5746 5744 5742 5741 5739 5737 5735 5733 5731 5730 5729 5727 5727 5725 5724 5723 5722 5722 5721 5721 5721 5721 5722 5722 5723 5724 5725 5725 5726 5727 5728 5729 5729 5730 5731 5732
5754 5753 5753 5752 5752 5751 5750 5749 5747 5746 5745 5743 5742 5740 5738 5737 5735 5734 5733 5732 5731 5729 5728 5728 5727 5727 5726 5726 5726 5726 5727 5727 5728 5729 5729 5730 5731 5732 5733 5734 5734 5735 5736 5737
5753 5753 5753 5752 5752 5751 5751 5750 5749 5748 5747 5746 5745 5743 5742 5740 5739 5737 5737 5736 5734 5734 5733 5732 5732 5732 5731 5731 5731 5732 5732 5732 5733 5733 5734 5735 5736 5737 5738 5738 5739 5740 5741 5741
5752 5752 5752 5752 5752 5752 5751 5751 5750 5749 5749 5748 5747 5746 5745 5744 5742 5741 5740 5739 5738 5738 5737 5737 5736 5736 5736 5736 5736 5737 5737 5737 5738 5738 5739 5740 5740 5741 5742 5743 5743 5744 5745 5745
5751 5751 5752 5751 5752 5751 5751 5751 5751 5750 5750 5749 5749 5748 5747 5746 5745 5744 5743 5743 5742 5742 5741 5741 5741 5740 5741 5741 5741 5741 5742 5742 5742 5743 5743 5744 5745 5745 5746 5747 5747 5748 5749 5749
5749 5750 5750 5750 5750 5750 5750 5750 5750 5750 5750 5750 5750 5749 5749 5748 5747 5747 5746 5746 5745 5745 5745 5744 5744 5744 5744 5745 5745 5745 5746 5746 5746 5747 5747 5748 5748 5749 5750 5750 5751 5751 5752 5752
5746 5747 5747 5748 5748 5749 5749 5749 5749 5750 5750 5750 5750 5750 5750 5749 5749 5749 5748 5748 5748 5747 5747 5747 5747 5747 5747 5748 5748 5748 5749 5749 5750 5750 5750 5751 5751 5752 5752 5753 5753 5754 5754 5754